カタログに戻る

THOR ABLESTAR R/B

運用中LEO
NORAD 447·ROCKET BODY·🇺🇸 United States

打ち上げ Oct 31, 1962 から Cape Canaveral Space Force Station

Loading…

次のパス (今後24時間)

TLE

最新Source: Space-Track

元期: Sep 14, 2026, 05:48 UTC

1 00447U 62060B   26257.24209409 -.00000104  00000-0  43871-4 0  9994
2 00447  50.1287 196.4092 0065796  85.0401  81.9041 13.39177150124009

AllMySatでTHOR ABLESTAR R/Bをリアルタイム追跡

Download on the App Store